Home   Weather   Rüti   Past weeks

Flag for Switzerland Past Weather in Rüti, Zurich, Switzerland — Yesterday and Last 2 Weeks

Now
31 °F

Chilly.


Feels Like: 26 °F
Forecast: 19 / 41 °F
Wind: 5 mph from Northeast

Location: Zuerich-Fluntern

Current Time: Dec 6, 2016 at 11:04:13 pm

Latest Report: Dec 6, 2016 at 9:00 pm


Visibility: N/A

Pressure: 30.54 "Hg

Humidity: 92%

Dew Point: 29 °F

Location of RütiLocation

Past Weather in Rüti — Graph

°F

Rüti Temperature Yesterday

Maximum temperature yesterday: 33 °F (at 2:00 pm)
Minimum temperature yesterday: 28 °F (at 5:00 am)
Average temperature yesterday: 30 °F

High & Low Weather Summary for the Past Weeks

 TemperatureHumidityPressure
High63 °F (Nov 22, 12:00 am)100% (Dec 1, 6:00 am)30.65 "Hg (Dec 1, 6:00 am)
Low25 °F (Nov 29, 8:00 am)33% (Nov 21, 11:00 pm)29.60 "Hg (Nov 21, 10:00 pm)
Average38 °F83%30.21 "Hg
* Reported Nov 21 9:00 pm — Dec 6 9:00 pm, Rüti, Weather by CustomWeather, © 2016

Note: Actual official high and low records may vary slightly from our data, if they occured in-between our weather recording intervals... More about our weather records

Advertising

Rüti Weather History for the Previous 24 Hours

Scroll right to see more
 ConditionsComfort  
Time TempWeatherWind HumidityBarometerVisibility
9:00 pm
Tue, Dec 6
31 °FChilly.5 mph92%30.54 "HgN/A
8:00 pm31 °FChilly.1 mph93%30.54 "HgN/A
6:00 pm35 °FChilly.5 mph82%30.51 "HgN/A
5:00 pm37 °FChilly.3 mph75%30.50 "HgN/A
4:00 pm42 °FQuite cool.1 mph65%30.46 "HgN/A
3:00 pm42 °FQuite cool.2 mph66%30.45 "HgN/A
2:00 pm42 °FQuite cool.1 mph67%30.45 "HgN/A
1:00 pm41 °FQuite cool.2 mph68%30.46 "HgN/A
12:00 pm39 °FChilly.2 mph73%30.47 "HgN/A
11:00 am36 °FChilly.1 mph79%30.50 "HgN/A
10:00 am33 °FChilly.1 mph89%30.51 "HgN/A
9:00 am30 °FChilly.No wind94%30.51 "HgN/A
8:00 am30 °FChilly.1 mph95%30.50 "HgN/A
7:00 am30 °FChilly.1 mph94%30.48 "HgN/A
6:00 am31 °FChilly.No wind95%30.47 "HgN/A
5:00 am30 °FChilly.No wind96%30.47 "HgN/A
4:00 am30 °FChilly.1 mph96%30.47 "HgN/A
3:00 am31 °FChilly.1 mph96%30.46 "HgN/A
2:00 am31 °FChilly.1 mph96%30.46 "HgN/A
1:00 am30 °FChilly.1 mph98%30.46 "HgN/A
12:00 am31 °FChilly.1 mph96%30.46 "HgN/A
11:00 pm
Mon, Dec 5
31 °FChilly.1 mph97%30.46 "HgN/A
Weather by CustomWeather, © 2016

See weather overviewHow to use our weather pages